World > North America > United States > Ohio > Newcomerstown

Hourly Newcomerstown, OH Regional Weather

Feedback E-mail the Weather

Quick WX

Newcomerstown, OH Weather Maps

°F °C°F °C
Newcomerstown Weather Map
UTC Time: 8/17/2022, 00:41
Your Time:

Newcomerstown, OH Regional Weather

Expires:202208170100;;166276
ASUS41 KCLE 170010
RWRCLE
OHIO REGIONAL WEATHER ROUNDUP
NATIONAL WEATHER SERVICE CLEVELAND, OH
800 PM EDT TUE AUG 16 2022

NOTE: "FAIR" INDICATES FEW OR NO CLOUDS BELOW 12,000 FEET WITH NO
SIGNIFICANT WEATHER AND/OR OBSTRUCTIONS TO VISIBILITY.


OHZ036-037-039>041-045>050-054>059-063>069-073>076-082>088-170100-
  CENTRAL AND SOUTHEAST OHIO
  
CITY           SKY/WX    TMP DP  RH WIND       PRES   REMARKS
COLUMBUS       MOCLDY    71  63  75 NE8       30.00S                  
OSU AIRPORT    PTCLDY    72  61  68 NE8       30.01S                  
BOLTON FIELD   PTCLDY    71  62  73 NE7       30.01S                  
RICKENBACK AFB PTCLDY    71  63  75 NE6       30.00R                  
NEWARK         PTCLDY    72  63  73 CALM      30.01R                  
MARION         PTCLDY    69  62  78 N6        30.03F                  
LANCASTER      PTCLDY    69  63  81 NE5       30.01R                  
ZANESVILLE     CLOUDY    71  65  81 VRB3      30.01R                  
NEW PHILLY     NOT AVBL                                               
$$
  

SKY/WX - Weather  TMP - Temperature  DP - Dew Point  RH - Humidity
WIND - Wind Direction/Speed PRES - Barometric Pressure VSB - Visibility
WCI - Wind Chill Index E13G22 Wind - East Wind 13 mph/Gusts of 22 mph

Trending Headlines

Newcomerstown Radar Loop



Newcomerstown Quick Facts


National Two Day Weather Forecast


E-mail the Newcomerstown Weather Forecast

Voice your opinion or tell us about page issues...